Simultaneous Nadir Overpasses (SNOs) Predictions

Prediction of SNOs between GOES-16 and AQUA Satellite Orbit:

Table of predicted SNOs for the next 14.0 days since TLE Epoch: 2/18/2023
Index Date Time (GOES-16) GOES-16 Lat,Lon AQUA Lat,Lon Distance(km) Time Diff (sec)
1 02/19/2023 18:32:14 0.06, -75.20 0.82, -71.59 410.67 80
2 02/20/2023 06:53:11 -0.06, -75.20 0.28, -76.66 166.70 80
3 02/22/2023 06:37:09 -0.05, -75.22 -0.43, -73.41 206.24 80
4 02/22/2023 18:58:15 0.05, -75.23 -0.64, -78.52 373.84 80
5 02/24/2023 18:44:52 0.05, -75.26 0.08, -75.26 3.07 80
6 02/26/2023 18:34:07 0.05, -75.29 0.73, -71.99 375.71 80
7 02/27/2023 06:55:03 -0.05, -75.30 0.31, -77.07 200.51 80
8 03/01/2023 06:38:57 -0.04, -75.34 -0.35, -73.79 175.73 80
9 03/01/2023 19:00:02 0.04, -75.35 -0.73, -78.90 403.74 80
10 03/03/2023 18:46:36 0.02, -75.39 -0.00, -75.63 26.28 80
